Location: Newark
(48.0000°N, 67.0000°E)
Time: 12:51:25
(UTC+00:00)

SR - Visible Passes

Search period start: 17 February 2020 00:00
Search period end: 27 February 2020 00:00
Orbit: 575 x 881 km, 66.7° (Epoch: 17 February)

Date Brightness Start Highest point End Pass type
(mag) Time Alt. Az. Time Alt. Az. Time Alt. Az.
17 Feb ? 13:38:08 10° WSW 13:43:32 35° NW 13:48:49 10° NNE visible
17 Feb ? 15:24:20 10° NW 15:27:22 14° NNW 15:30:21 10° NNE visible
17 Feb ? 17:10:09 10° NNW 17:10:36 11° N 17:10:36 11° N visible
18 Feb ? 14:32:58 10° WNW 14:36:57 18° NNW 14:40:50 10° NNE visible
18 Feb ? 16:19:52 10° NNW 16:21:27 11° N 16:22:18 11° N visible
19 Feb ? 13:41:51 10° W 13:46:40 25° NW 13:51:22 10° NNE visible
19 Feb ? 15:28:43 10° NNW 15:30:51 12° N 15:32:57 10° NNE visible
19 Feb ? 17:12:56 10° NNW 17:13:24 11° N 17:13:24 11° N visible
20 Feb ? 14:37:14 10° NW 14:40:19 14° NNW 14:43:21 10° NNE visible
20 Feb ? 16:23:14 10° NNW 16:24:59 11° N 16:25:05 11° N visible
21 Feb ? 13:45:52 10° WNW 13:49:55 19° NNW 13:53:51 10° NNE visible
21 Feb ? 15:32:52 10° NNW 15:34:23 11° N 15:35:54 10° NNE visible
21 Feb ? 17:15:32 10° NNW 17:16:09 12° N 17:16:09 12° N visible
22 Feb ? 14:41:38 10° NNW 14:43:47 12° NNW 14:45:56 10° N visible
22 Feb ? 16:26:01 10° NNW 16:27:49 13° N 16:27:49 13° N visible
23 Feb ? 13:50:08 10° NW 13:53:17 15° NNW 13:56:22 10° NNE visible
23 Feb ? 15:36:18 10° N 15:37:55 11° N 15:39:29 10° NNE visible
23 Feb ? 17:18:05 10° NNW 17:18:53 13° NNW 17:18:53 13° NNW visible
24 Feb ? 14:45:51 10° NNW 14:47:20 11° N 14:48:47 10° NNE visible
24 Feb ? 16:28:37 10° NNW 16:30:33 15° N 16:30:33 15° N visible
25 Feb ? 13:54:33 10° NW 13:56:45 12° NNW 13:58:54 10° N visible
25 Feb ? 15:39:06 10° N 15:41:25 12° NNE 15:42:13 12° NNE visible
25 Feb ? 17:20:39 10° NNW 17:21:37 14° NNW 17:21:37 14° NNW visible
26 Feb ? 14:49:22 10° N 14:50:51 11° N 14:52:20 10° NNE visible
26 Feb ? 16:31:09 10° NNW 16:33:18 17° N 16:33:18 17° N visible
